Flag for U.S.A. Weather past 2 weeks in Lakewood, Colorado, U.S.A.

Now
66 °F

Passing clouds.


Feels Like: 66 °F
Forecast: 62 / 81 °F
Wind: 8 mph from Southeast

Location: Centennial Airport

Current Time: Aug 3, 2015 at 1:30:49 AM

Latest Report: Aug 3, 2015 at 12:53 AM


Visibility: 10 mi

Pressure: 29.88 "Hg (24.54 "Hg at 1683m altitude)

Humidity: 59%

Dew point: 51 °F

Location of LakewoodLocation

Historic Weather in Lakewood — Graph

°F

Lakewood temperature yesterday

Maximum temperature yesterday: 90 °F (at 12:53 PM)
Minimum temperature yesterday: 64 °F (at 5:53 AM)
Average temperature yesterday: 74 °F

Past Weeks' High & Low Weather Summary

 TemperatureHumidityPressure
High93 °F (Jul 27, 3:53 PM)96% (Jul 19, 4:53 AM)30.19 "Hg (Jul 19, 4:53 AM)
Low55 °F (Jul 19, 4:53 AM)13% (Aug 1, 3:53 PM)29.61 "Hg (Jul 27, 3:53 PM)
Average73 °F45%29.95 "Hg
* Reported Jul 18 11:53 PM — Aug 2 11:53 PM, Lakewood, Weather by CustomWeather, © 2015

Note: Actual official high and low records may vary slightly from our data, if they occured in-between our weather recording intervals... More about our weather records

Advertising

Lakewood weather history for previous 24 hours

 ConditionsComfort  
Time TempWeatherWind HumidityBarometerVisibility
11:53 PM
Sun, Aug 2
68 °FPassing clouds.6 mph51%29.88 "Hg10 mi
10:53 PM71 °FPassing clouds.12 mph44%29.87 "Hg10 mi
9:53 PM69 °FMostly cloudy.20 mph51%29.89 "Hg10 mi
8:53 PM72 °FMostly cloudy.16 mph44%29.90 "Hg10 mi
7:53 PM69 °FMostly cloudy.14 mph57%29.92 "Hg10 mi
6:53 PM73 °FPartly sunny.14 mph40%29.91 "Hg10 mi
5:53 PM66 °FLight rain. Cloudy.13 mph68%30.16 "Hg9 mi
4:53 PM68 °FThunderstorms. Broken clouds.6 mph61%30.01 "Hg9 mi
3:53 PM72 °FThunderstorms. Broken clouds.No wind48%29.98 "Hg9 mi
2:53 PM81 °FThunderstorms. Broken clouds.23 mph27%29.89 "Hg10 mi
1:53 PM87 °FBroken clouds.9 mph18%29.84 "Hg10 mi
12:53 PM90 °FPartly sunny.13 mph17%29.83 "Hg10 mi
11:53 AM87 °FPartly sunny.10 mph19%29.85 "Hg10 mi
10:53 AM86 °FPartly sunny.6 mph24%29.87 "Hg10 mi
9:53 AM80 °FPartly sunny.3 mph30%29.89 "Hg10 mi
8:53 AM76 °FPartly sunny.No wind39%29.90 "Hg10 mi
7:53 AM70 °FBroken clouds.5 mph49%29.91 "Hg10 mi
6:53 AM68 °FPartly cloudy.No wind55%29.89 "Hg10 mi
5:53 AM64 °FPartly cloudy.5 mph56%29.88 "Hg10 mi
4:53 AM65 °FPartly cloudy.8 mph59%29.87 "Hg10 mi
3:53 AM69 °FPassing clouds.7 mph44%29.86 "Hg10 mi
2:53 AM70 °FPassing clouds.10 mph42%29.84 "Hg10 mi
1:53 AM70 °FPartly cloudy.6 mph44%29.86 "Hg10 mi
Weather by CustomWeather, © 2015

See weather overviewHow to use our weather pages